Norfork, AR (72658)

11:25 PM CDT on September 04, 2015 (GMT -0500)
KARCALIC2 | | Change Station
CLOSE
Current Station
Personal Weather Station
Location: Calico Rock, AR
Elevation: 666 ft
Nearby Weather Stations

Elev 666 ft 36.10 °N, 92.23 °W | Updated 0 second ago

Clear
Clear
70.0 °F
Feels Like 70.0 °F
N
0.0
Wind Variable Wind from North
Gusts 0.0 mph

Today
High -- | Low -- °F
--% Chance of Precip.
Yesterday
High -- | Low -- °F
Precip. -- in
6:42 AM 7:32 PM
Waning Gibbous, 52% visible
Pressure 30.00 in
Visibility 8.0 miles
Clouds Clear
Dew Point 68 °F
Humidity 95%
Rainfall 0.00 in
Snow Depth Not available.
UV 0 out of 12
Pollen 10.20 out of 12
Air Quality Not available.
Flu Activity Not available.
METAR KBPK 050353Z AUTO 13003KT 8SM CLR 26/19 A3003 RMK AO2 SLP157 T02560194
Pressure 30.00 in
Visibility 8.0 miles
Clouds Clear
Dew Point 68 °F
Humidity 95%
Rainfall 0.00 in
Snow Depth Not available.
UV 0 out of 12
Pollen 10.20 out of 12
Air Quality Not available.
Flu Activity Not available.
METAR KBPK 050353Z AUTO 13003KT 8SM CLR 26/19 A3003 RMK AO2 SLP157 T02560194

10-Day Weather Forecast

×

Almanac

Astronomy

Sep. 04, 2015 Rise Set
Actual Time
Civil Twilight
Nautical Twilight
Astronomical Twilight
Moon
Length of Visible Light
Length of Day
Tomorrow will be .
, % of the Moon is Illuminated

Today's Extremes

State Highs State Lows

Community

WunderPhotos

Upload Photos

1,852,423 photos uploaded!

WunderBlogs® & News

Nearby

Air Quality

  Air Quality AQ Index Pollutant
Not available.

Snow Depth

Station Depth Elevation

Earthquake Activity

City Distance Mag. Time & Date
Minimum magnitude displayed is 2.5.

Coastal Water Temperatures

Place Temperature

Stations

Nearby Weather Stations

Station Location Temp. Windchill Dew Point Humidity Wind Precip. Elev Updated Type